Location: Barnston
(51.8500°N, 0.4000°E)
Time: 12:18:39
(UTC+00:00)

CZ-2C R/B - Pass Details

Date: 26 September 2023
Orbit: 667 x 780 km, 98.3° (Epoch: 10 December)

Event Time Altitude Azimuth Distance (km) Brightness Sun altitude
Rises 04:26:28 0° 10° (N) 3,193 6.1 -13.6°
Reaches altitude 10° 04:28:53 10° 4° (N) 2,247 5.2 -13.3°
Maximum altitude 04:33:30 42° 295° (WNW) 1,028 2.8 -12.6°
Enters shadow 04:37:26 13° 228° (SW) 1,970 4.1 -12.0°
